SHIYAN 3 (SY-3)

Satellite information

Favourite Embed

Satellite Type and Status

PAYLOADIN ORBIT

Key statistics

Satellite SHIYAN 3 (SY-3) at a glance.

Uptime

6149

Days in orbit

Revolutions

≈ 14.3

Per day

Orbit

SSO

Sun Synchronous Orbit

Inclination

98.6

Latest

Satellite identification and parameters

Extended collection of information and parameters for SHIYAN 3 (SY-3).

Object identification

Identified? True

Debris? False

Object name: SHIYAN 3 (SY-3)

International designator: 2008-056A

Object number (NORAD): 33433

Object ID (CCSDS): 33433

Country: PEOPLES REPUBLIC OF CHINA (PRC)

Current information (Y/N): Y

RCS size: MEDIUM

Orbital parameters

Period: 100.652 minutes

Inclination: 98.6367 deg

SMA: 7167.632 km

Apoapsis: 798.494 km

Periapsis: 780.501 km

RAAN: 272.8465 deg

Eccentricy: 0.00125514

Argument of periapsis: 248.1806 deg

Mean anomaly: 111.8042 deg

Mean motion: 14.30669055 rev/day

Mean motion (dot): 0.00000237 rev/day2

B* drag term: 0.00010739874 1/REarth

Two-line elements (TLE)

Creation date: Sept. 6, 2025, 2:09 a.m.

Reference frame: TEME

Reference center: EARTH

Epoch: Sept. 5, 2025, 10:02 p.m. UTC

TLE line 0: 0 SHIYAN 3 (SY-3)

TLE line 1: 1 33433U 08056A 25248.91835446 .00000237 00000-0 10740-3 0 9993

TLE line 2: 2 33433 98.6367 272.8465 0012551 248.1806 111.8042 14.30669055878159

Live tracking on map

Real-time ground track for satellite SHIYAN 3 (SY-3).

In-orbit conjunctions

There are no conjunctions computed for SHIYAN 3 (SY-3), at the moment. Check back to stay up to date, as we update our databases every day.

Go to all conjunctions

Associated space launch

Chinese experimental Earth observation satellite

SHIYAN 3 (SY-3) was lifted into orbit during the mission ‘Long March 2D | Shiyan Weixing 3’, on board a Long March 2D space rocket.

The launch took place on Nov. 5, 2008, 12:15 a.m. from Launch Area 4 (SLS-2 / 603).

For more information about the launch, click the button.

Launch to space Long March 2D | Shiyan Weixing 3
Long March 2D | Shiyan Weixing 3

Agency: N/A

Status: Launch Successful

Launch date: Nov. 5, 2008, 12:15 a.m. UTC

Rocket: Long March 2D

Launch pad: Launch Area 4 (SLS-2 / 603)

Location: Jiuquan Satellite Launch Center, People's Republic of China

...

Latest news about this satellite

There are no fresh news available about this satellite. Check back as we update our databases every day.


Newsletter sign-up

Weekly statistics, charts and insights to help you stay on top of the space industry.